[[{"header":{"parameterUnit":"m.s-1","parameterCategory":2,"la1":30.2991,"la2":30.254,"lo1":-89.0895,"lo2":-89.0444,"dy":0.0017,"dx":0.0017,"nx":28,"ny":28,"refTime":"2025-03-17T03:00:00:Z","depth":"0","parameterNumber":2,"parameterNumberName":"U-component_of_CURRENTS"},"data":[0,0,0,0,0,0,0,0,0,0,0,0,0,0,0,0,0,0,0,0,0,0,0,0,0,0,0,0,0,0,0,0,0,0,0,0,0,0,0,0,0,0,0,0,0,0,0,0,0,0,0,0,0,0,0,0,0,0,-0.3469,-0.347,0,-0.3514,-0.3513,-0.3512,-0.3453,-0.3452,-0.3451,-0.3451,-0.3401,-0.3401,-0.34,0,0,0,0,0,0,0,0,0,0,0,0,0,-0.3376,-0.3377,-0.3469,-0.3471,-0.3473,-0.3514,-0.3513,-0.3512,-0.3453,-0.3452,-0.3451,-0.345,-0.3401,-0.3401,-0.34,0,0,0,0,0,0,0,0,0,0,0,0,0,-0.3404,-0.3377,-0.3468,-0.3459,-0.346,-0.3514,-0.3513,-0.3512,-0.3453,-0.3452,-0.3451,-0.345,-0.3402,-0.3401,-0.34,-0.3417,0,0,-0.3397,-0.3397,0,0,0,0,0,0,0,0,-0.3402,-0.3405,-0.3458,-0.346,-0.3461,-0.349,-0.3463,-0.3481,-0.3453,-0.344,-0.345,-0.3449,-0.3433,-0.3429,-0.342,-0.3415,-0.3413,-0.3397,-0.3396,-0.3396,-0.3396,0,0,0,0,0,0,0,-0.34,-0.3403,-0.3471,-0.3461,-0.3463,-0.3469,-0.347,-0.3465,-0.3428,-0.3441,-0.344,-0.347,-0.343,-0.3421,-0.3418,-0.3412,-0.3397,-0.3396,-0.3396,-0.3395,-0.3411,-0.3412,0,0,0,0,0,0,-0.3424,-0.3402,-0.347,-0.3474,-0.3445,-0.3473,-0.3473,-0.3469,-0.3431,-0.3429,-0.3471,-0.3467,-0.3423,-0.342,-0.3416,-0.3397,-0.3396,-0.3395,-0.3395,-0.341,-0.3411,-0.3412,0,0,0,0,0,0,-0.3421,-0.3428,-0.3468,-0.3453,-0.346,-0.3477,-0.3473,-0.3471,-0.3468,-0.3457,-0.345,-0.3473,-0.3422,-0.3418,-0.3417,-0.3396,-0.3395,-0.3394,-0.3409,-0.341,-0.3411,-0.3382,0,0,0,0,0,0,-0.3418,-0.3426,-0.3413,-0.3453,-0.3463,-0.35,-0.3476,-0.3473,-0.3496,-0.3491,-0.3457,-0.3451,-0.3421,-0.3418,-0.3416,-0.3394,-0.3393,-0.3407,-0.3409,-0.3411,-0.3381,-0.3382,-0.3382,0,0,0,0,0,-0.3414,-0.3406,-0.3411,-0.342,-0.3449,-0.3502,-0.3505,-0.3504,-0.3497,-0.3495,-0.3477,-0.3452,-0.3427,-0.3419,-0.3415,-0.3393,-0.3406,-0.3409,-0.3411,-0.3381,-0.3382,-0.3382,0,0,0,0,0,0,-0.3357,-0.3402,-0.3408,-0.3412,-0.3459,-0.3498,-0.3496,-0.3517,-0.3502,-0.349,-0.3467,-0.346,-0.3453,-0.3444,-0.3435,-0.3409,-0.3412,-0.3414,-0.3391,-0.3392,-0.3392,-0.3367,-0.3392,0,0,0,0,0,-0.3346,-0.3342,-0.3407,-0.3409,-0.343,-0.3467,-0.3485,-0.3501,-0.3514,-0.3505,-0.3493,-0.3476,-0.3461,-0.3443,-0.3438,-0.3424,-0.3367,-0.3411,-0.3411,-0.3411,-0.3393,-0.3265,-0.325,-0.3419,-0.3419,-0.3419,0,0,-0.3339,-0.3354,-0.3359,-0.3397,-0.3419,-0.3454,-0.3469,-0.3506,-0.3521,-0.3504,-0.3493,-0.3487,-0.3466,-0.3444,-0.3439,-0.3427,-0.3346,-0.3414,-0.3414,-0.3395,-0.3265,-0.3248,-0.3232,-0.342,-0.342,-0.342,0,0,-0.3323,-0.3323,-0.3322,-0.3358,-0.3413,-0.3442,-0.3463,-0.3514,-0.3509,-0.3529,-0.3511,-0.3486,-0.3487,-0.3439,-0.3421,-0.3427,-0.3365,-0.3445,-0.34,-0.3276,-0.3259,-0.3244,-0.3184,-0.3163,-0.3426,-0.3426,-0.3426,0,-0.3301,-0.3306,-0.3336,-0.3351,-0.3372,-0.3441,-0.346,-0.3483,-0.3526,-0.3494,-0.3523,-0.3462,-0.3469,-0.3385,-0.3406,-0.3418,-0.3363,-0.3391,-0.3269,-0.3252,-0.3236,-0.3179,-0.3155,-0.3425,-0.3425,-0.3425,-0.3425,0,-0.3301,-0.3304,-0.3309,-0.3337,-0.3365,-0.3396,-0.3453,-0.346,-0.3477,-0.3479,-0.3424,-0.342,-0.3361,-0.3379,-0.3405,-0.33,-0.3306,-0.3291,-0.3251,-0.3216,-0.316,-0.3137,-0.3423,-0.3423,-0.3424,-0.3424,0,0,-0.3229,-0.3293,-0.3289,-0.3285,-0.3355,-0.3369,-0.3389,-0.339,-0.3343,-0.3376,-0.3288,-0.3299,-0.3276,-0.3258,-0.3262,-0.3186,-0.3076,-0.3206,-0.32,-0.312,-0.2835,-0.2786,-0.2756,-0.3023,-0.3018,-0.3014,-0.2851,0,-0.3205,-0.3222,-0.3261,-0.3265,-0.3273,-0.3316,-0.3305,-0.3309,-0.3305,-0.3244,-0.3214,-0.316,-0.3234,-0.3197,-0.3131,-0.3101,-0.3008,-0.3125,-0.2905,-0.29,-0.2834,-0.2723,-0.2611,-0.2449,-0.2828,-0.2824,-0.2821,0,-0.317,-0.318,-0.3192,-0.3181,-0.3181,-0.3197,-0.3138,-0.3146,-0.3092,-0.3073,-0.3007,-0.3001,-0.2935,-0.2992,-0.2854,-0.2924,-0.2877,-0.2847,-0.2838,-0.2775,-0.2803,-0.2542,-0.2392,-0.2397,-0.2784,-0.2787,-0.279,0,-0.3075,-0.3105,-0.31,-0.3114,-0.3139,-0.3112,-0.3112,-0.3073,-0.3022,-0.2962,-0.2902,-0.2822,-0.2778,-0.2695,-0.2707,-0.2752,-0.2545,-0.2576,-0.247,-0.2469,-0.2321,-0.2314,-0.2113,-0.2408,-0.2409,-0.2409,-0.241,0,-0.3013,-0.2992,-0.3056,-0.3052,-0.2984,-0.3031,-0.2935,-0.2924,-0.2863,-0.2767,-0.2803,-0.2709,-0.2699,-0.2615,-0.2612,-0.2476,-0.2447,-0.2423,-0.2387,-0.2318,-0.2312,-0.2271,-0.2324,-0.2403,-0.2404,-0.2406,-0.2407,0,-0.29,-0.2963,-0.2932,-0.2952,-0.2947,-0.2894,-0.2847,-0.2759,-0.2753,-0.2632,-0.261,-0.2587,-0.2489,-0.2469,-0.2345,-0.2334,-0.2176,-0.2175,-0.2142,-0.2104,-0.201,-0.2067,-0.1835,-0.1788,-0.1996,-0.1994,-0.1991,0,-0.2843,-0.2831,-0.2839,-0.2805,-0.2814,-0.2759,-0.2694,-0.2691,-0.2617,-0.2546,-0.2467,-0.2383,-0.228,-0.2121,-0.2069,-0.1965,-0.2022,-0.1829,-0.1875,-0.194,-0.1977,-0.2042,-0.2026,-0.1692,-0.1687,-0.1683,-0.168,0,-0.27,-0.2715,-0.2698,-0.2638,-0.2588,-0.2507,-0.245,-0.2386,-0.2365,-0.23,-0.2192,-0.2113,-0.1985,-0.1838,-0.1755,-0.17,-0.1789,-0.1748,-0.1768,-0.1665,-0.1758,-0.1719,-0.194,-0.1647,-0.165,-0.1653,-0.1655,-0.1656,-0.2564,-0.2515,-0.2495,-0.2416,-0.2361,-0.2247,-0.2128,-0.2104,-0.1993,-0.1883,-0.1927,-0.178,-0.1702,-0.155,-0.1501,-0.1415,-0.1505,-0.1395,-0.1446,-0.1499,-0.1468,-0.1655,-0.1358,-0.1359,-0.1361,-0.1362,-0.1363,0,-0.2354,-0.2325,-0.2258,-0.2151,-0.2014,-0.205,-0.1929,-0.1801,-0.1664,-0.1633,-0.1551,-0.1426,-0.1305,-0.1269,-0.12,-0.1151,-0.1155,-0.1152,-0.1207,-0.1195,-0.128,-0.1284,-0.1009,-0.1009,-0.1009,-0.1009,-0.1009,-0.1009,-0.2234,-0.2112,-0.2088,-0.1828,-0.1752,-0.1515,-0.142,-0.1319,-0.1247,-0.1105,-0.1041,-0.0992,-0.1032,-0.1163,-0.1113,-0.1062,-0.1084,-0.1029,-0.1104,-0.119,-0.1218,-0.1245,-0.1257,-0.0981,-0.0981,-0.0955,-0.0955,-0.0955]},{"header":{"parameterUnit":"m.s-1","parameterCategory":2,"la1":30.2991,"la2":30.254,"lo1":-89.0895,"lo2":-89.0444,"dy":0.0017,"dx":0.0017,"nx":28,"ny":28,"refTime":"2025-03-17T03:00:00:Z","depth":"0","parameterNumber":3,"parameterNumberName":"V-component_of_CURRENTS"},"data":[0,0,0,0,0,0,0,0,0,0,0,0,0,0,0,0,0,0,0,0,0,0,0,0,0,0,0,0,0,0,0,0,0,0,0,0,0,0,0,0,0,0,0,0,0,0,0,0,0,0,0,0,0,0,0,0,0,0,-0.0076,-0.0075,0,0.0025,0.0026,0.0027,0.0089,0.009,0.009,0.0091,0.0277,0.0281,0.0285,0,0,0,0,0,0,0,0,0,0,0,0,0,-0.015,-0.015,-0.0076,-0.0075,-0.0073,0.0025,0.0026,0.0027,0.0089,0.009,0.0091,0.0091,0.0275,0.0281,0.0286,0,0,0,0,0,0,0,0,0,0,0,0,0,-0.0094,-0.015,-0.0076,-0.0028,-0.0022,0.0025,0.0026,0.0027,0.0089,0.009,0.0091,0.0092,0.0274,0.028,0.0287,0.0307,0,0,0.0306,0.0309,0,0,0,0,0,0,0,0,-0.0097,-0.0092,-0.0036,-0.0031,-0.0024,0.0049,0.0068,0.0126,0.0089,0.0043,0.0091,0.0092,0.021,0.0222,0.0232,0.0316,0.0324,0.0307,0.0311,0.0314,0.0316,0,0,0,0,0,0,0,-0.0101,-0.0095,-0.004,-0.0035,-0.0027,0.0012,0.002,0.0079,0.0119,0.0047,0.0053,0.0069,0.0214,0.0226,0.0238,0.0327,0.0307,0.0313,0.0317,0.0319,0.0466,0.0466,0,0,0,0,0,0,-0.0111,-0.01,-0.0043,-0.0036,-0.0055,0.0012,0.0021,0.0021,0.0116,0.0132,0.0068,0.0072,0.0214,0.023,0.0245,0.0287,0.0314,0.032,0.0324,0.0466,0.0466,0.0466,0,0,0,0,0,0,-0.0114,-0.0108,-0.0047,-0.0062,-0.0051,0.0013,0.0012,0.0023,0.0039,0.0132,0.0149,0.0074,0.0216,0.0235,0.0292,0.0294,0.0323,0.0329,0.0466,0.0466,0.0466,0.0364,0,0,0,0,0,0,-0.0117,-0.011,-0.0125,-0.0063,-0.005,-0.0035,0.0012,0.0024,0.0049,0.0055,0.0143,0.0161,0.0218,0.0281,0.0298,0.0304,0.0334,0.0466,0.0466,0.0466,0.0368,0.0361,0.0355,0,0,0,0,0,-0.012,-0.0149,-0.0126,-0.0119,-0.0069,-0.0035,-0.0026,0.0021,0.0048,0.0041,0.0107,0.0158,0.0294,0.0286,0.0306,0.0314,0.0466,0.0466,0.0466,0.0371,0.0362,0.0355,0,0,0,0,0,0,-0.0184,-0.0142,-0.0117,-0.013,-0.0089,-0.0024,-0.0026,0.0014,0.0058,0.0068,0.0155,0.0177,0.0228,0.0283,0.0273,0.0357,0.039,0.0394,0.0311,0.0304,0.0297,0.0288,0.0339,0,0,0,0,0,-0.0205,-0.0221,-0.0159,-0.0171,-0.0155,-0.009,-0.0072,-0.0035,0.0019,0.0039,0.0102,0.0176,0.0242,0.0281,0.0339,0.0384,0.0426,0.0404,0.0398,0.0392,0.0398,0.0439,0.0436,0.0466,0.0466,0.0466,0,0,-0.0223,-0.0211,-0.0212,-0.0186,-0.0152,-0.014,-0.0079,-0.0057,-0.0037,0.0055,0.0088,0.0152,0.0247,0.0294,0.0323,0.0342,0.0404,0.0392,0.0386,0.0396,0.0439,0.0436,0.0433,0.0466,0.0466,0.0466,0,0,-0.0285,-0.0265,-0.03,-0.0274,-0.0234,-0.0187,-0.0182,-0.0119,-0.0084,-0.0043,0.0034,0.0097,0.0184,0.0256,0.0306,0.0303,0.0364,0.0323,0.0291,0.0329,0.0327,0.0325,0.0362,0.0364,0.0325,0.0325,0.0324,0,-0.0316,-0.0342,-0.0301,-0.0324,-0.0297,-0.0212,-0.0217,-0.0174,-0.0099,-0.006,-0.0047,0.0095,0.0169,0.0255,0.0256,0.0289,0.0316,0.0308,0.0319,0.0318,0.0318,0.0356,0.036,0.032,0.032,0.0321,0.0321,0,-0.0392,-0.0407,-0.0423,-0.0419,-0.0389,-0.0379,-0.0299,-0.0264,-0.0207,-0.0149,-0.0069,0.0021,0.0113,0.0144,0.0203,0.0255,0.0274,0.0297,0.033,0.0309,0.0351,0.0357,0.0313,0.0314,0.0316,0.0317,0,0,-0.0473,-0.0478,-0.0483,-0.0479,-0.043,-0.0405,-0.0368,-0.0294,-0.0256,-0.019,-0.0141,-0.0028,0.0029,0.009,0.017,0.0212,0.0235,0.025,0.0254,0.0272,0.0313,0.0357,0.0369,0.0249,0.025,0.025,0.0336,0,-0.0541,-0.0602,-0.0572,-0.0581,-0.0586,-0.049,-0.0456,-0.0376,-0.0301,-0.024,-0.0127,-0.0059,0.0007,0.005,0.0101,0.0208,0.0248,0.021,0.0345,0.0349,0.038,0.0377,0.0429,0.0513,0.0343,0.0344,0.0345,0,-0.0624,-0.0647,-0.0688,-0.0641,-0.063,-0.0617,-0.0518,-0.0476,-0.0361,-0.0306,-0.0219,-0.0132,-0.0029,0.0007,0.0162,0.013,0.0214,0.0284,0.0289,0.0375,0.0406,0.0513,0.0531,0.0666,0.0355,0.0354,0.0353,0,-0.0696,-0.0713,-0.0743,-0.0733,-0.0681,-0.0658,-0.0608,-0.0501,-0.045,-0.0349,-0.031,-0.0184,-0.0114,-0.0006,0.0161,0.0154,0.0314,0.0323,0.0442,0.0446,0.0544,0.0555,0.0703,0.0415,0.0415,0.0415,0.0415,0,-0.0779,-0.0794,-0.0782,-0.0797,-0.0792,-0.0725,-0.069,-0.0621,-0.053,-0.047,-0.0354,-0.0283,-0.0117,0.0009,0.0136,0.0317,0.0299,0.0444,0.0475,0.0509,0.0516,0.0683,0.0718,0.0418,0.0417,0.0417,0.0416,0,-0.0855,-0.0859,-0.0883,-0.0851,-0.0837,-0.083,-0.075,-0.0715,-0.0629,-0.0554,-0.0525,-0.0355,-0.0182,-0.0008,0.0188,0.0298,0.0542,0.0522,0.0553,0.0586,0.0807,0.0834,0.1001,0.1073,0.0654,0.0656,0.0657,0,-0.09,-0.0931,-0.0932,-0.0937,-0.0928,-0.0902,-0.0873,-0.0781,-0.0738,-0.0582,-0.055,-0.0368,-0.0203,0.0098,0.0316,0.0541,0.0636,0.0708,0.0711,0.0838,0.0891,0.0902,0.0951,0.0797,0.08,0.0802,0.0803,0,-0.0961,-0.0969,-0.0986,-0.1006,-0.1,-0.0979,-0.0933,-0.0916,-0.079,-0.0701,-0.054,-0.0397,-0.0087,0.0215,0.0497,0.0633,0.0804,0.0755,0.0888,0.102,0.1043,0.1121,0.0716,0.0821,0.0819,0.0818,0.0817,0.0816,-0.0987,-0.1016,-0.1036,-0.1045,-0.1048,-0.1031,-0.1003,-0.093,-0.0842,-0.0618,-0.0509,-0.0159,0.0156,0.0578,0.0713,0.1026,0.0965,0.1131,0.1154,0.1155,0.1229,0.0858,0.0995,0.0994,0.0993,0.0993,0.0992,0,-0.0992,-0.1022,-0.105,-0.1061,-0.1065,-0.1054,-0.101,-0.0938,-0.0816,-0.0495,-0.0268,0.0289,0.0617,0.0924,0.127,0.1428,0.1446,0.1504,0.1546,0.1577,0.127,0.1282,0.1485,0.1485,0.1485,0.1485,0.1485,0.1484,-0.0993,-0.1021,-0.1036,-0.105,-0.106,-0.103,-0.1002,-0.0876,-0.0637,-0.0123,0.0354,0.0706,0.1066,0.1444,0.1758,0.1786,0.1918,0.1898,0.195,0.1755,0.1723,0.1691,0.1715,0.2006,0.2006,0.227,0.2273,0.2275]}],[{"header":{"parameterUnit":"m.s-1","parameterCategory":2,"la1":30.2991,"la2":30.254,"lo1":-89.0895,"lo2":-89.0444,"dy":0.0017,"dx":0.0017,"nx":28,"ny":28,"refTime":"2025-03-17T03:00:00:Z","depth":"2","parameterNumber":2,"parameterNumberName":"U-component_of_CURRENTS"},"data":[0,0,0,0,0,0,0,0,0,0,0,0,0,0,0,0,0,0,0,0,0,0,0,0,0,0,0,0,0,0,0,0,0,0,0,0,0,0,0,0,0,0,0,0,0,0,0,0,0,0,0,0,0,0,0,0,0,0,-0.275,-0.275,0,-0.2876,-0.2878,-0.2881,-0.2927,-0.2926,-0.2924,-0.2923,-0.2911,-0.2912,-0.2913,0,0,0,0,0,0,0,0,0,0,0,0,0,-0.2685,-0.2686,-0.2749,-0.275,-0.275,-0.2875,-0.2878,-0.2881,-0.2927,-0.2925,-0.2924,-0.2922,-0.2911,-0.2912,-0.2913,0,0,0,0,0,0,0,0,0,0,0,0,0,-0.2763,-0.2687,-0.2749,-0.278,-0.2783,-0.2875,-0.2878,-0.2882,-0.2928,-0.2925,-0.2923,-0.2921,-0.291,-0.2912,-0.2913,-0.2969,0,0,-0.2918,-0.2919,0,0,0,0,0,0,0,0,-0.2759,-0.2767,-0.2775,-0.2778,-0.2781,-0.2873,-0.2851,-0.29,-0.2928,-0.2885,-0.2923,-0.292,-0.2879,-0.2883,-0.2931,-0.2968,-0.2968,-0.2919,-0.292,-0.292,-0.2921,0,0,0,0,0,0,0,-0.2753,-0.2763,-0.2812,-0.2775,-0.2779,-0.2833,-0.2842,-0.2863,-0.29,-0.2889,-0.289,-0.2886,-0.2881,-0.293,-0.293,-0.2968,-0.2919,-0.292,-0.2921,-0.2922,-0.2991,-0.2992,0,0,0,0,0,0,-0.2709,-0.2757,-0.2807,-0.2814,-0.2751,-0.2835,-0.2845,-0.2856,-0.2903,-0.2906,-0.2887,-0.2887,-0.2928,-0.2929,-0.293,-0.2932,-0.292,-0.2922,-0.2923,-0.299,-0.2991,-0.2992,0,0,0,0,0,0,-0.2708,-0.2713,-0.2802,-0.2778,-0.2791,-0.2836,-0.2849,-0.2859,-0.2932,-0.2901,-0.2903,-0.295,-0.2926,-0.2928,-0.2935,-0.2933,-0.2923,-0.2924,-0.2989,-0.299,-0.2991,-0.2976,0,0,0,0,0,0,-0.2706,-0.2713,-0.2726,-0.2775,-0.2791,-0.2844,-0.285,-0.2863,-0.2925,-0.2927,-0.2955,-0.295,-0.2925,-0.2932,-0.2936,-0.2935,-0.2925,-0.2988,-0.2989,-0.2991,-0.2976,-0.2977,-0.2978,0,0,0,0,0,-0.2704,-0.2717,-0.2727,-0.2733,-0.2801,-0.2843,-0.2859,-0.2891,-0.293,-0.2955,-0.2963,-0.2951,-0.2945,-0.2935,-0.2939,-0.2938,-0.2987,-0.2989,-0.2991,-0.2975,-0.2977,-0.2978,0,0,0,0,0,0,-0.2678,-0.2723,-0.2735,-0.2757,-0.279,-0.2846,-0.287,-0.2922,-0.2967,-0.2959,-0.2968,-0.2963,-0.2969,-0.297,-0.2959,-0.2965,-0.2964,-0.2967,-0.295,-0.2952,-0.2953,-0.2938,-0.2927,0,0,0,0,0,-0.2681,-0.2704,-0.2748,-0.2757,-0.2781,-0.2847,-0.288,-0.2899,-0.2931,-0.2955,-0.2973,-0.2982,-0.2985,-0.2979,-0.2981,-0.2995,-0.2948,-0.2998,-0.2999,-0.3,-0.2993,-0.2884,-0.2873,-0.2998,-0.2998,-0.2998,0,0,-0.267,-0.2691,-0.2705,-0.2753,-0.279,-0.2836,-0.2865,-0.2899,-0.2926,-0.294,-0.2986,-0.2994,-0.2994,-0.2988,-0.2992,-0.2984,-0.2949,-0.3002,-0.3003,-0.2995,-0.2885,-0.2872,-0.286,-0.2999,-0.2999,-0.2999,0,0,-0.265,-0.2683,-0.2707,-0.2752,-0.279,-0.2825,-0.2847,-0.2916,-0.2933,-0.2976,-0.298,-0.2979,-0.3023,-0.299,-0.2989,-0.3008,-0.2964,-0.303,-0.3011,-0.2906,-0.2893,-0.2882,-0.2832,-0.2816,-0.302,-0.302,-0.302,0,-0.2636,-0.2669,-0.2716,-0.2758,-0.2776,-0.2832,-0.2859,-0.2904,-0.2959,-0.2944,-0.2972,-0.2996,-0.3012,-0.2972,-0.2991,-0.3004,-0.2959,-0.3001,-0.2901,-0.2889,-0.2876,-0.2828,-0.281,-0.302,-0.302,-0.302,-0.302,0,-0.2653,-0.2686,-0.27,-0.2769,-0.28,-0.2822,-0.2869,-0.2893,-0.293,-0.2952,-0.2933,-0.2945,-0.294,-0.2964,-0.3,-0.2934,-0.2937,-0.2916,-0.2885,-0.2862,-0.2815,-0.2796,-0.3019,-0.3019,-0.3019,-0.3019,0,0,-0.2588,-0.2694,-0.2697,-0.2715,-0.28,-0.281,-0.2841,-0.2851,-0.2844,-0.2883,-0.2852,-0.2891,-0.2889,-0.289,-0.2907,-0.2853,-0.2771,-0.2869,-0.2864,-0.2799,-0.257,-0.2511,-0.2485,-0.272,-0.2716,-0.2713,-0.2579,0,-0.2578,-0.2634,-0.269,-0.2721,-0.275,-0.2793,-0.2811,-0.2819,-0.2829,-0.2816,-0.2797,-0.2793,-0.286,-0.2852,-0.2806,-0.279,-0.2718,-0.2812,-0.2621,-0.2617,-0.2546,-0.2459,-0.2309,-0.2169,-0.2561,-0.2557,-0.2555,0,-0.2568,-0.2602,-0.2639,-0.2667,-0.268,-0.2715,-0.2693,-0.2715,-0.2707,-0.2703,-0.2676,-0.2686,-0.2655,-0.2698,-0.2597,-0.2654,-0.2614,-0.2591,-0.2583,-0.2514,-0.252,-0.2253,-0.2121,-0.2524,-0.2526,-0.2528,-0.2531,0,-0.2471,-0.2543,-0.2552,-0.2583,-0.2651,-0.2644,-0.2667,-0.2674,-0.2648,-0.263,-0.2603,-0.2559,-0.2535,-0.2467,-0.248,-0.2518,-0.2351,-0.2372,-0.2264,-0.2262,-0.2089,-0.2076,-0.2235,-0.2235,-0.2235,-0.2236,-0.2236,0,-0.2416,-0.2426,-0.2515,-0.2532,-0.251,-0.2579,-0.2539,-0.2558,-0.2546,-0.2496,-0.2539,-0.2479,-0.2475,-0.2408,-0.2403,-0.2282,-0.2265,-0.2232,-0.2194,-0.2087,-0.2077,-0.2353,-0.2369,-0.2231,-0.2232,-0.2233,-0.2234,0,-0.2302,-0.2383,-0.2393,-0.2457,-0.2477,-0.2457,-0.2479,-0.2435,-0.2464,-0.2397,-0.2387,-0.2388,-0.2308,-0.2288,-0.2186,-0.2166,-0.2068,-0.202,-0.1936,-0.1889,-0.2076,-0.2093,-0.1862,-0.1858,-0.1855,-0.1852,-0.185,0,-0.2245,-0.2248,-0.2314,-0.2316,-0.2353,-0.2352,-0.2339,-0.2381,-0.2344,-0.2331,-0.2277,-0.2219,-0.2132,-0.1988,-0.1926,-0.1821,-0.193,-0.165,-0.168,-0.2037,-0.2023,-0.2046,-0.2067,-0.1464,-0.1458,-0.1454,-0.1451,0,-0.2111,-0.215,-0.2157,-0.2165,-0.217,-0.215,-0.2157,-0.2125,-0.2154,-0.212,-0.2051,-0.1985,-0.1865,-0.1691,-0.1598,-0.1538,-0.1663,-0.1558,-0.1862,-0.16,-0.1653,-0.1645,-0.1679,-0.1412,-0.1416,-0.1419,-0.1421,-0.1423,-0.199,-0.1953,-0.1971,-0.1961,-0.197,-0.1935,-0.187,-0.1888,-0.1827,-0.1764,-0.181,-0.1671,-0.1627,-0.138,-0.1292,-0.1244,-0.1366,-0.1332,-0.1347,-0.1367,-0.1363,-0.1408,-0.1124,-0.1126,-0.1128,-0.1129,-0.1131,0,-0.1793,-0.1784,-0.1761,-0.1737,-0.1674,-0.175,-0.1713,-0.1626,-0.1534,-0.1527,-0.1462,-0.1252,-0.1128,-0.1093,-0.0942,-0.0919,-0.0935,-0.0898,-0.0925,-0.0961,-0.0995,-0.0975,-0.0631,-0.063,-0.0629,-0.0628,0,0,-0.169,-0.1597,-0.1587,-0.1442,-0.1436,-0.1304,-0.1259,-0.1194,-0.1152,-0.1047,-0.0989,-0.1065,-0.1039,-0.084,-0.0789,-0.068,-0.0817,-0.0643,-0.1038,-0.1103,-0.1135,-0.1232,-0.1241,0,0,0,0,0]},{"header":{"parameterUnit":"m.s-1","parameterCategory":2,"la1":30.2991,"la2":30.254,"lo1":-89.0895,"lo2":-89.0444,"dy":0.0017,"dx":0.0017,"nx":28,"ny":28,"refTime":"2025-03-17T03:00:00:Z","depth":"2","parameterNumber":3,"parameterNumberName":"V-component_of_CURRENTS"},"data":[0,0,0,0,0,0,0,0,0,0,0,0,0,0,0,0,0,0,0,0,0,0,0,0,0,0,0,0,0,0,0,0,0,0,0,0,0,0,0,0,0,0,0,0,0,0,0,0,0,0,0,0,0,0,0,0,0,0,-0.0439,-0.0439,0,-0.0343,-0.0341,-0.0339,-0.0254,-0.0254,-0.0253,-0.0253,-0.0076,-0.0072,-0.0067,0,0,0,0,0,0,0,0,0,0,0,0,0,-0.0501,-0.05,-0.0439,-0.0438,-0.0438,-0.0343,-0.0341,-0.0339,-0.0254,-0.0253,-0.0253,-0.0253,-0.0077,-0.0072,-0.0067,0,0,0,0,0,0,0,0,0,0,0,0,0,-0.044,-0.05,-0.0439,-0.0389,-0.0384,-0.0343,-0.0341,-0.0338,-0.0254,-0.0253,-0.0253,-0.0252,-0.0079,-0.0073,-0.0066,-0.0037,0,0,-0.0046,-0.0044,0,0,0,0,0,0,0,0,-0.0444,-0.0437,-0.0397,-0.0393,-0.0387,-0.0316,-0.0298,-0.0236,-0.0254,-0.0296,-0.0253,-0.0252,-0.0154,-0.0141,-0.0115,-0.0029,-0.0021,-0.0046,-0.0042,-0.0039,-0.0037,0,0,0,0,0,0,0,-0.0448,-0.0441,-0.0394,-0.0397,-0.0391,-0.0356,-0.0346,-0.0286,-0.0222,-0.0292,-0.0288,-0.0288,-0.0149,-0.0122,-0.0111,-0.0018,-0.0046,-0.004,-0.0036,-0.0034,0.0118,0.0119,0,0,0,0,0,0,-0.0477,-0.0445,-0.0397,-0.0392,-0.0422,-0.0356,-0.0344,-0.0334,-0.0225,-0.021,-0.0289,-0.0285,-0.0133,-0.0118,-0.0104,-0.0054,-0.0039,-0.0033,-0.0029,0.0118,0.0118,0.0119,0,0,0,0,0,0,-0.0478,-0.0473,-0.0401,-0.0422,-0.0411,-0.0356,-0.0344,-0.0332,-0.0292,-0.0224,-0.0206,-0.0261,-0.0132,-0.0113,-0.0056,-0.0047,-0.003,-0.0024,0.0118,0.0118,0.0118,0.004,0,0,0,0,0,0,-0.048,-0.0474,-0.0474,-0.0424,-0.0412,-0.0388,-0.0345,-0.0331,-0.0298,-0.029,-0.0194,-0.0178,-0.013,-0.0066,-0.0049,-0.0038,-0.0019,0.0118,0.0118,0.0118,0.0042,0.0037,0.0033,0,0,0,0,0,-0.0483,-0.049,-0.0474,-0.0469,-0.0414,-0.0389,-0.0379,-0.0333,-0.0297,-0.0291,-0.0226,-0.018,-0.0053,-0.0061,-0.0041,-0.0027,0.0118,0.0118,0.0118,0.0045,0.0038,0.0033,0,0,0,0,0,0,-0.0519,-0.0481,-0.0463,-0.0458,-0.0433,-0.0378,-0.037,-0.033,-0.0271,-0.0261,-0.0179,-0.0159,-0.0108,-0.0057,-0.0068,0.0016,0.0041,0.0045,-0.0022,-0.0027,-0.0032,-0.0033,-0.0013,0,0,0,0,0,-0.053,-0.0526,-0.0485,-0.0487,-0.0472,-0.0416,-0.0397,-0.0369,-0.0316,-0.0288,-0.0224,-0.0154,-0.0092,-0.0053,-0.0001,0.0051,0.0097,0.0073,0.0068,0.0064,0.0076,0.0137,0.0138,0.0119,0.0119,0.0119,0,0,-0.0551,-0.0529,-0.0529,-0.0495,-0.0465,-0.0453,-0.0401,-0.0384,-0.0365,-0.0279,-0.0231,-0.0171,-0.0085,-0.0038,-0.0008,0.0009,0.009,0.0064,0.006,0.0074,0.0137,0.0139,0.0141,0.012,0.0119,0.0119,0,0,-0.0598,-0.0564,-0.0576,-0.0552,-0.0523,-0.0486,-0.0481,-0.0426,-0.039,-0.0349,-0.0278,-0.0214,-0.0127,-0.0061,-0.0014,-0.0008,0.0056,0.001,-0.0002,0.0056,0.0058,0.006,0.0103,0.011,0.0016,0.0016,0.0016,0,-0.0623,-0.0625,-0.0579,-0.058,-0.0563,-0.0501,-0.0503,-0.0461,-0.0398,-0.0358,-0.035,-0.0199,-0.0136,-0.0044,-0.0044,-0.0017,0.0021,0.0008,0.0049,0.0052,0.0056,0.01,0.0109,0.0012,0.0012,0.0013,0.0013,0,-0.0672,-0.067,-0.0674,-0.0648,-0.0624,-0.0619,-0.056,-0.0526,-0.0476,-0.0423,-0.0339,-0.0258,-0.016,-0.0134,-0.0083,-0.0012,0.0006,0.0025,0.0058,0.0053,0.01,0.011,0.0007,0.0008,0.0009,0.001,0,0,-0.0727,-0.0713,-0.0711,-0.0706,-0.0655,-0.0639,-0.0604,-0.0543,-0.0497,-0.0439,-0.0374,-0.0272,-0.0213,-0.0155,-0.0082,-0.0024,0.0026,0.0011,0.0016,0.0045,0.0146,0.017,0.0184,0.005,0.0052,0.0054,0.0161,0,-0.0774,-0.0804,-0.0769,-0.0775,-0.0775,-0.0698,-0.0664,-0.0597,-0.0528,-0.0456,-0.0353,-0.0273,-0.0224,-0.0175,-0.011,-0.0002,0.0054,-0.0005,0.0156,0.0161,0.0176,0.0198,0.0184,0.028,0.0171,0.0173,0.0174,0,-0.0824,-0.0834,-0.0865,-0.0824,-0.0811,-0.0799,-0.0709,-0.0669,-0.0548,-0.0492,-0.0393,-0.0309,-0.0194,-0.017,0.0005,-0.0036,0.0051,0.0124,0.013,0.0193,0.0205,0.0274,0.0304,0.0193,0.0191,0.019,0.0189,0,-0.0887,-0.0886,-0.0914,-0.0904,-0.0857,-0.0836,-0.079,-0.0682,-0.0627,-0.0509,-0.0458,-0.0319,-0.0242,-0.0122,0.0034,0.0022,0.0213,0.0214,0.0317,0.0319,0.0363,0.0366,0.0332,0.0331,0.0331,0.0331,0.0331,0,-0.0945,-0.0957,-0.095,-0.0962,-0.0957,-0.0894,-0.0849,-0.0781,-0.0675,-0.0598,-0.0481,-0.0394,-0.0225,-0.009,0.0031,0.0212,0.0213,0.0329,0.0358,0.0333,0.0332,0.0304,0.0299,0.0335,0.0334,0.0333,0.0333,0,-0.1008,-0.1013,-0.1034,-0.1008,-0.0996,-0.0987,-0.0899,-0.0852,-0.0754,-0.0656,-0.062,-0.0439,-0.0258,-0.009,0.0121,0.0216,0.0376,0.0438,0.0391,0.0413,0.0439,0.0429,0.0559,0.0561,0.0563,0.0564,0.0565,0,-0.1042,-0.1071,-0.1076,-0.1082,-0.1073,-0.1043,-0.1008,-0.0908,-0.0849,-0.0669,-0.0624,-0.043,-0.0263,0.004,0.0238,0.0452,0.0444,0.055,0.0532,0.0452,0.0467,0.0454,0.0443,0.0552,0.0553,0.0554,0.0555,0,-0.1091,-0.11,-0.1119,-0.1138,-0.1129,-0.1098,-0.1042,-0.1012,-0.0871,-0.0766,-0.0587,-0.0442,-0.0143,0.0111,0.037,0.0487,0.051,0.0573,0.053,0.0489,0.0453,0.0464,0.0452,0.0562,0.0561,0.056,0.056,0.056,-0.1111,-0.1138,-0.1162,-0.117,-0.1167,-0.1134,-0.1097,-0.1017,-0.0909,-0.0721,-0.0572,-0.0329,-0.0097,0.0287,0.0463,0.0604,0.0607,0.0643,0.0638,0.0633,0.0605,0.0574,0.0699,0.0699,0.0699,0.0699,0.0699,0,-0.1114,-0.1144,-0.117,-0.118,-0.1174,-0.1158,-0.1094,-0.1026,-0.0897,-0.0715,-0.0506,-0.0211,0.0085,0.0291,0.0535,0.0689,0.0661,0.0696,0.0637,0.0631,0.0625,0.0594,0.0687,0.0687,0.0687,0.0687,0,0,-0.1117,-0.1147,-0.1164,-0.1168,-0.117,-0.1127,-0.1089,-0.0983,-0.0851,-0.065,-0.0466,-0.0183,0.0084,0.0258,0.0457,0.0569,0.0545,0.0569,0.0568,0.047,0.0461,0.0594,0.054,0,0,0,0,0]}],[{"header":{"parameterUnit":"m.s-1","parameterCategory":2,"la1":30.2991,"la2":30.254,"lo1":-89.0895,"lo2":-89.0444,"dy":0.0017,"dx":0.0017,"nx":28,"ny":28,"refTime":"2025-03-17T03:00:00:Z","depth":"4","parameterNumber":2,"parameterNumberName":"U-component_of_CURRENTS"},"data":[0,0,0,0,0,0,0,0,0,0,0,0,0,0,0,0,0,0,0,0,0,0,0,0,0,0,0,0,0,0,0,0,0,0,0,0,0,0,0,0,0,0,0,0,0,0,0,0,0,0,0,0,0,0,0,0,0,0,-0.1394,-0.1394,0,-0.1438,-0.1439,-0.1439,-0.1516,-0.1518,-0.1519,-0.152,-0.1633,-0.1635,-0.1637,0,0,0,0,0,0,0,0,0,0,0,0,0,-0.1292,-0.1295,-0.1394,-0.1394,-0.1394,-0.1438,-0.1439,-0.1439,-0.1516,-0.1518,-0.1519,-0.1521,-0.1633,-0.1635,-0.1637,0,0,0,0,0,0,0,0,0,0,0,0,0,-0.1339,-0.1295,-0.1393,-0.1436,-0.1441,-0.1438,-0.1439,-0.144,-0.1516,-0.1518,-0.152,-0.1521,-0.1632,-0.1635,-0.1637,-0.1616,0,0,-0.1646,-0.1647,0,0,0,0,0,0,0,0,-0.1336,-0.1343,-0.143,-0.1433,-0.1438,-0.1472,-0.1444,-0.1502,-0.1515,-0.1489,-0.152,-0.1522,-0.1583,-0.159,-0.1596,-0.1622,-0.1627,-0.1646,-0.1648,-0.1649,-0.165,0,0,0,0,0,0,0,-0.1333,-0.1341,-0.1413,-0.143,-0.1435,-0.1425,-0.1435,-0.1455,-0.1528,-0.1492,-0.1497,-0.1498,-0.1586,-0.1593,-0.1599,-0.1628,-0.1646,-0.1648,-0.165,-0.1651,-0.1788,-0.179,0,0,0,0,0,0,-0.1326,-0.1338,-0.1412,-0.1414,-0.1388,-0.1425,-0.1436,-0.1461,-0.1526,-0.1537,-0.1496,-0.1501,-0.1587,-0.1596,-0.1604,-0.17,-0.1649,-0.1652,-0.1653,-0.1786,-0.1789,-0.1791,0,0,0,0,0,0,-0.1324,-0.1333,-0.141,-0.1374,-0.1383,-0.1426,-0.1452,-0.1461,-0.1498,-0.1529,-0.1542,-0.1528,-0.1589,-0.16,-0.1672,-0.1701,-0.1653,-0.1655,-0.1784,-0.1787,-0.179,-0.1817,0,0,0,0,0,0,-0.1321,-0.1333,-0.1357,-0.1374,-0.1385,-0.1442,-0.145,-0.146,-0.1493,-0.1501,-0.1559,-0.157,-0.1592,-0.1668,-0.1674,-0.1704,-0.1657,-0.1781,-0.1785,-0.1789,-0.1814,-0.1821,-0.1827,0,0,0,0,0,-0.1318,-0.1342,-0.1358,-0.1367,-0.1415,-0.1442,-0.1448,-0.1484,-0.1492,-0.1522,-0.157,-0.157,-0.1696,-0.1672,-0.1679,-0.1709,-0.178,-0.1784,-0.1788,-0.1811,-0.1819,-0.1827,0,0,0,0,0,0,-0.1307,-0.1352,-0.137,-0.1408,-0.1437,-0.1456,-0.148,-0.1493,-0.1548,-0.1569,-0.1593,-0.1608,-0.168,-0.1694,-0.1665,-0.1763,-0.1738,-0.1744,-0.1752,-0.1761,-0.1767,-0.175,-0.166,0,0,0,0,0,-0.1314,-0.1352,-0.1383,-0.1415,-0.1433,-0.1457,-0.1474,-0.1502,-0.1542,-0.1568,-0.1611,-0.1658,-0.1695,-0.173,-0.1768,-0.1817,-0.1796,-0.1844,-0.185,-0.1856,-0.185,-0.1852,-0.1857,-0.1805,-0.1805,-0.1805,0,0,-0.1312,-0.1345,-0.1364,-0.1416,-0.1442,-0.1478,-0.1475,-0.1517,-0.1555,-0.157,-0.1652,-0.1681,-0.1714,-0.1779,-0.1811,-0.18,-0.1859,-0.1861,-0.1865,-0.1856,-0.1857,-0.1861,-0.1865,-0.1809,-0.1808,-0.1807,0,0,-0.1326,-0.1367,-0.1403,-0.1439,-0.1489,-0.1506,-0.1522,-0.1568,-0.1604,-0.1676,-0.1691,-0.1737,-0.1817,-0.1833,-0.1849,-0.191,-0.1889,-0.1937,-0.196,-0.1963,-0.1966,-0.1968,-0.1934,-0.1934,-0.1944,-0.1944,-0.1944,0,-0.1328,-0.1379,-0.1415,-0.1463,-0.149,-0.1522,-0.156,-0.1597,-0.1665,-0.1693,-0.1722,-0.1812,-0.1835,-0.1876,-0.1906,-0.1921,-0.1914,-0.1923,-0.1967,-0.197,-0.1972,-0.1936,-0.1935,-0.1946,-0.1946,-0.1946,-0.1946,0,-0.1361,-0.1416,-0.144,-0.1515,-0.1551,-0.1591,-0.164,-0.1693,-0.1738,-0.1769,-0.1844,-0.1878,-0.1927,-0.1943,-0.1947,-0.1976,-0.1961,-0.1967,-0.1938,-0.1978,-0.1939,-0.1937,-0.1949,-0.1948,-0.1948,-0.1947,0,0,-0.1332,-0.1442,-0.1456,-0.1495,-0.1583,-0.1608,-0.1684,-0.1741,-0.1786,-0.1861,-0.1908,-0.1964,-0.1977,-0.1995,-0.1999,-0.2003,-0.2,-0.2,-0.2,-0.1948,-0.1989,-0.185,-0.1834,-0.2024,-0.2025,-0.2025,-0.1949,0,-0.1348,-0.1431,-0.1489,-0.1563,-0.1601,-0.1668,-0.1731,-0.1795,-0.1857,-0.1919,-0.1945,-0.1999,-0.1998,-0.2025,-0.2029,-0.2011,-0.2001,-0.2019,-0.1974,-0.1971,-0.1828,-0.183,-0.2026,-0.1947,-0.1947,-0.1947,-0.1946,0,-0.1357,-0.1412,-0.1485,-0.1584,-0.1609,-0.1665,-0.1757,-0.1822,-0.191,-0.1964,-0.2017,-0.2044,-0.2056,-0.2056,-0.2034,-0.2053,-0.2023,-0.2002,-0.1999,-0.1855,-0.1829,-0.1905,-0.1943,-0.1943,-0.1943,-0.1943,-0.1944,0,-0.129,-0.1405,-0.1457,-0.1494,-0.1614,-0.1665,-0.1731,-0.1834,-0.189,-0.1984,-0.2026,-0.2064,-0.2074,-0.2064,-0.202,-0.2041,-0.1978,-0.1997,-0.1835,-0.1824,-0.1959,-0.1958,-0.1972,-0.1972,-0.1972,-0.1973,-0.1973,0,-0.1265,-0.1315,-0.1436,-0.1466,-0.1527,-0.1635,-0.1719,-0.1793,-0.1906,-0.1953,-0.2034,-0.205,-0.2083,-0.2054,-0.2022,-0.19,-0.1975,-0.1819,-0.1794,-0.1973,-0.1974,-0.1956,-0.1956,-0.197,-0.197,-0.1971,-0.1971,0,-0.1185,-0.1272,-0.1335,-0.1461,-0.1499,-0.1545,-0.1695,-0.1757,-0.1874,-0.1934,-0.1961,-0.2032,-0.1986,-0.1976,-0.1934,-0.1869,-0.1791,-0.1731,-0.1889,-0.1878,-0.1636,-0.1639,-0.1544,-0.1538,-0.1533,-0.1529,-0.1526,0,-0.1154,-0.1179,-0.1298,-0.1326,-0.1387,-0.1483,-0.1551,-0.1712,-0.1777,-0.1895,-0.1899,-0.1904,-0.192,-0.1727,-0.1752,-0.1654,-0.1639,-0.1595,-0.1642,-0.1606,-0.1593,-0.1602,-0.161,-0.1518,-0.1517,-0.1516,-0.1515,0,-0.108,-0.1132,-0.1172,-0.122,-0.129,-0.1374,-0.1483,-0.1521,-0.1692,-0.1798,-0.1773,-0.1738,-0.167,-0.162,-0.1541,-0.1488,-0.1629,-0.1546,-0.1556,-0.16,-0.1575,-0.1568,-0.1582,-0.1498,-0.1501,-0.1502,-0.1503,0,-0.1014,-0.1012,-0.1063,-0.109,-0.1171,-0.1234,-0.1324,-0.1395,-0.1476,-0.1624,-0.1598,-0.1599,-0.1646,-0.1529,-0.1467,-0.1389,-0.1377,-0.135,-0.1371,-0.1389,-0.1374,-0.1322,-0.1127,0,0,0,0,0,-0.0939,-0.0912,-0.0928,-0.0966,-0.1048,-0.1101,-0.1257,-0.1364,-0.1523,-0.1456,-0.1531,-0.1462,-0.1373,-0.1381,-0.1261,-0.1393,-0.1382,-0.1251,-0.1364,-0.1408,-0.1427,-0.1423,0,0,0,0,0,0,-0.0879,-0.0885,-0.0876,-0.0857,-0.0863,-0.0961,-0.1062,-0.1184,-0.1175,-0.1313,-0.126,-0.135,-0.1271,-0.1376,-0.121,-0.1212,-0.1252,-0.1264,-0.126,-0.1397,-0.1414,-0.1429,-0.1433,0,0,0,0,0]},{"header":{"parameterUnit":"m.s-1","parameterCategory":2,"la1":30.2991,"la2":30.254,"lo1":-89.0895,"lo2":-89.0444,"dy":0.0017,"dx":0.0017,"nx":28,"ny":28,"refTime":"2025-03-17T03:00:00:Z","depth":"4","parameterNumber":3,"parameterNumberName":"V-component_of_CURRENTS"},"data":[0,0,0,0,0,0,0,0,0,0,0,0,0,0,0,0,0,0,0,0,0,0,0,0,0,0,0,0,0,0,0,0,0,0,0,0,0,0,0,0,0,0,0,0,0,0,0,0,0,0,0,0,0,0,0,0,0,0,-0.0475,-0.0475,0,-0.0456,-0.0456,-0.0455,-0.0413,-0.0413,-0.0412,-0.0412,-0.0351,-0.035,-0.0349,0,0,0,0,0,0,0,0,0,0,0,0,0,-0.0488,-0.0488,-0.0475,-0.0475,-0.0476,-0.0456,-0.0456,-0.0455,-0.0413,-0.0413,-0.0412,-0.0412,-0.0352,-0.035,-0.0349,0,0,0,0,0,0,0,0,0,0,0,0,0,-0.0473,-0.0488,-0.0475,-0.0456,-0.0454,-0.0457,-0.0456,-0.0455,-0.0414,-0.0413,-0.0412,-0.0412,-0.0352,-0.0351,-0.0349,-0.0351,0,0,-0.0343,-0.0343,0,0,0,0,0,0,0,0,-0.0474,-0.0472,-0.0459,-0.0457,-0.0456,-0.0441,-0.0438,-0.042,-0.0414,-0.0424,-0.0412,-0.0411,-0.0381,-0.0377,-0.0369,-0.0348,-0.0345,-0.0343,-0.0342,-0.0341,-0.0341,0,0,0,0,0,0,0,-0.0475,-0.0473,-0.0463,-0.0459,-0.0457,-0.0453,-0.0449,-0.0435,-0.0402,-0.0423,-0.0421,-0.0427,-0.0379,-0.0371,-0.0367,-0.0345,-0.0343,-0.0342,-0.034,-0.034,-0.0288,-0.0287,0,0,0,0,0,0,-0.0487,-0.0474,-0.0464,-0.0463,-0.0468,-0.0454,-0.0449,-0.0442,-0.0403,-0.0398,-0.0427,-0.0425,-0.0374,-0.0369,-0.0365,-0.0347,-0.0341,-0.034,-0.0339,-0.0288,-0.0288,-0.0287,0,0,0,0,0,0,-0.0487,-0.0485,-0.0465,-0.0472,-0.047,-0.0454,-0.0447,-0.0442,-0.044,-0.0408,-0.0401,-0.0431,-0.0373,-0.0367,-0.0348,-0.0345,-0.0339,-0.0337,-0.0288,-0.0288,-0.0287,-0.0322,0,0,0,0,0,0,-0.0487,-0.0485,-0.0491,-0.0473,-0.047,-0.0473,-0.0448,-0.0443,-0.0447,-0.0443,-0.0409,-0.0402,-0.0372,-0.035,-0.0346,-0.0342,-0.0336,-0.0289,-0.0288,-0.0288,-0.0321,-0.0323,-0.0324,0,0,0,0,0,-0.0487,-0.0497,-0.049,-0.049,-0.0475,-0.0474,-0.0472,-0.0456,-0.0448,-0.045,-0.042,-0.0403,-0.0343,-0.0349,-0.0344,-0.0339,-0.0289,-0.0288,-0.0288,-0.0321,-0.0322,-0.0324,0,0,0,0,0,0,-0.0506,-0.0494,-0.0486,-0.0491,-0.0488,-0.0469,-0.0475,-0.0467,-0.0446,-0.0439,-0.0405,-0.0396,-0.0378,-0.0355,-0.0363,-0.0321,-0.0312,-0.031,-0.0338,-0.034,-0.0341,-0.0337,-0.0334,0,0,0,0,0,-0.0515,-0.0516,-0.0505,-0.0511,-0.051,-0.0496,-0.0497,-0.0484,-0.0464,-0.0455,-0.0434,-0.0402,-0.037,-0.0354,-0.0329,-0.0312,-0.0264,-0.0303,-0.0304,-0.0306,-0.0297,-0.0206,-0.0198,-0.0285,-0.0285,-0.0285,0,0,-0.0526,-0.052,-0.0521,-0.0516,-0.0509,-0.0512,-0.0493,-0.0495,-0.0492,-0.0452,-0.0444,-0.0414,-0.0369,-0.0343,-0.0332,-0.0323,-0.0261,-0.0305,-0.0307,-0.0297,-0.0204,-0.0196,-0.0188,-0.0285,-0.0285,-0.0285,0,0,-0.0549,-0.054,-0.055,-0.0547,-0.0545,-0.0533,-0.0539,-0.0526,-0.0512,-0.0504,-0.0465,-0.0428,-0.0404,-0.0354,-0.0327,-0.0323,-0.0276,-0.0324,-0.0321,-0.0233,-0.0225,-0.0217,-0.0166,-0.0153,-0.0318,-0.0318,-0.0318,0,-0.0564,-0.0571,-0.0555,-0.0563,-0.0566,-0.0546,-0.0557,-0.0542,-0.0524,-0.0504,-0.0506,-0.0428,-0.0401,-0.0334,-0.0333,-0.0324,-0.028,-0.0321,-0.0234,-0.0225,-0.0216,-0.0165,-0.0151,-0.0319,-0.0319,-0.0319,-0.0319,0,-0.0591,-0.06,-0.0607,-0.0605,-0.0603,-0.0611,-0.0589,-0.0582,-0.0569,-0.0542,-0.0491,-0.0442,-0.0385,-0.0375,-0.0356,-0.028,-0.0272,-0.0252,-0.023,-0.0209,-0.0158,-0.0142,-0.0322,-0.0321,-0.0321,-0.032,0,0,-0.061,-0.0625,-0.0627,-0.0635,-0.0626,-0.0625,-0.0615,-0.059,-0.0566,-0.0538,-0.0492,-0.0438,-0.0397,-0.0363,-0.0323,-0.0253,-0.0169,-0.0234,-0.0228,-0.0184,0.0005,-0.0027,-0.0012,-0.013,-0.0127,-0.0125,0.0008,0,-0.0638,-0.0672,-0.0662,-0.0684,-0.0697,-0.0668,-0.0657,-0.0623,-0.0585,-0.0535,-0.0458,-0.0405,-0.0394,-0.0359,-0.0287,-0.0198,-0.0125,-0.0209,-0.002,-0.0015,-0.0045,0.0006,-0.0115,0.002,0.0024,0.0027,0.0029,0,-0.0663,-0.0683,-0.0721,-0.072,-0.0719,-0.0727,-0.0688,-0.067,-0.0585,-0.0546,-0.0465,-0.0402,-0.03,-0.0292,-0.0116,-0.017,-0.0086,-0.0018,-0.001,-0.0012,-0.0015,0.0003,0.0058,0.0056,0.0054,0.0052,0.005,0,-0.0688,-0.0715,-0.0751,-0.0755,-0.0754,-0.0755,-0.0744,-0.0678,-0.0644,-0.0543,-0.0494,-0.0368,-0.0295,-0.0169,-0.0048,-0.0068,0.0146,0.0144,0.0198,0.0196,0.0197,0.0188,0.0289,0.0289,0.0288,0.0288,0.0288,0,-0.0713,-0.0739,-0.0774,-0.0792,-0.0815,-0.0792,-0.0778,-0.074,-0.0661,-0.0597,-0.0501,-0.0413,-0.0257,-0.0123,-0.0021,0.0131,0.0177,0.0214,0.0242,0.0175,0.0161,0.0208,0.0196,0.0293,0.0292,0.0291,0.029,0,-0.073,-0.0759,-0.0801,-0.0825,-0.0833,-0.0847,-0.0821,-0.0791,-0.0719,-0.0628,-0.0592,-0.0427,-0.0254,-0.0108,0.0108,0.0164,0.0313,0.0359,0.026,0.0278,0.0293,0.0278,0.0438,0.0438,0.0438,0.0439,0.0439,0,-0.0742,-0.0772,-0.0831,-0.0856,-0.0875,-0.0889,-0.0886,-0.0831,-0.0784,-0.0627,-0.0574,-0.0393,-0.0275,0.001,0.0143,0.0343,0.0361,0.042,0.0368,0.0304,0.0316,0.0301,0.0286,0.0439,0.0439,0.0439,0.0439,0,-0.0757,-0.0791,-0.0826,-0.0881,-0.0908,-0.0917,-0.0905,-0.0874,-0.0777,-0.0717,-0.0517,-0.0355,-0.0161,0.003,0.0181,0.032,0.0369,0.0423,0.0423,0.0375,0.0308,0.0316,0.0301,0.044,0.044,0.044,0.044,0,-0.0766,-0.0798,-0.0848,-0.0885,-0.0928,-0.0926,-0.0919,-0.0837,-0.0778,-0.0604,-0.0536,-0.0315,-0.0181,0.0021,0.0164,0.0289,0.0309,0.0325,0.0331,0.0331,0.0242,0.0137,0.0262,0,0,0,0,0,-0.0761,-0.0791,-0.0835,-0.0878,-0.0919,-0.0934,-0.0914,-0.0889,-0.0805,-0.0661,-0.0589,-0.0398,-0.0142,-0.0025,0.0099,0.0127,0.0292,0.0269,0.0303,0.0446,0.0445,0.0354,0,0,0,0,0,0,-0.0759,-0.0809,-0.0829,-0.086,-0.0885,-0.0912,-0.0905,-0.0849,-0.0756,-0.0651,-0.0506,-0.0399,-0.0155,-0.0208,0.0096,0.0134,0.0163,0.0397,0.0399,0.0446,0.0445,0.0444,0.0351,0,0,0,0,0]}]]